TimeEET,TemperatureF,Dew PointF,Humidity,Sea Level PressureIn,VisibilityMPH,Wind Direction,Wind SpeedMPH,Gust SpeedMPH,PrecipitationIn,Events,Conditions,WindDirDegrees,DateUTC
2:50 AM,35.6,35.6,100,30.04,6.2,West,11.5,-,N/A,Rain,Light Rain,280,2013-12-03 00:50:00
3:50 AM,35.6,35.6,100,30.04,0.8,WNW,18.4,-,N/A,Snow,Light Snow,300,2013-12-03 01:50:00
4:50 AM,32.0,30.2,93,30.04,1.1,NNW,18.4,-,N/A,Snow,Light Snow,330,2013-12-03 02:50:00
5:50 AM,28.4,28.4,100,30.06,3.7,NNW,19.6,-,N/A,Snow,Light Snow,340,2013-12-03 03:50:00
6:50 AM,28.4,28.4,100,30.09,0.7,NNW,17.3,-,N/A,Snow,Light Snow,330,2013-12-03 04:50:00
7:50 AM,26.6,26.6,100,30.12,6.2,North,13.8,-,N/A,,Overcast,360,2013-12-03 05:50:00
8:00 AM,35,29,69,,9,NE,6.9,,,,Overcast,50,2013-12-03 06:00:00
8:50 AM,26.6,24.8,93,30.15,6.2,NNW,12.7,-,N/A,,Overcast,340,2013-12-03 06:50:00
9:50 AM,26.6,23.0,86,30.15,6.2,NNW,20.7,-,N/A,,Mostly Cloudy,340,2013-12-03 07:50:00
10:50 AM,28.4,23.0,80,30.15,6.2,NNW,16.1,-,N/A,,Mostly Cloudy,330,2013-12-03 08:50:00
11:00 AM,33,20,47,,9,NE,6.9,,,,Mostly Cloudy,40,2013-12-03 09:00:00
11:50 AM,28.4,21.2,74,30.15,6.2,NNW,19.6,-,N/A,,Mostly Cloudy,330,2013-12-03 09:50:00
12:50 PM,28.4,23.0,80,30.15,6.2,NNW,15.0,-,N/A,,Mostly Cloudy,340,2013-12-03 10:50:00
1:36 PM,26.6,23.0,86,30.15,6.2,NNW,16.1,-,N/A,Snow,Light Snow,340,2013-12-03 11:36:00
1:50 PM,26.6,23.0,86,30.15,6.2,North,17.3,-,N/A,Snow,Light Snow,350,2013-12-03 11:50:00
2:00 PM,33,22,53,,9,NE,5.8,,,,Mostly Cloudy,40,2013-12-03 12:00:00
2:50 PM,24.8,19.4,80,30.15,6.2,North,16.1,-,N/A,Snow,Light Snow,350,2013-12-03 12:50:00
3:50 PM,23.0,19.4,86,30.18,6.2,North,11.5,-,N/A,Snow,Light Snow,360,2013-12-03 13:50:00
4:50 PM,23.0,17.6,80,30.18,6.2,North,10.4,-,N/A,Snow,Light Snow,350,2013-12-03 14:50:00
5:00 PM,29,19,54,,9,ENE,4.6,,,,Mostly Cloudy,70,2013-12-03 15:00:00
5:37 PM,21.2,17.6,86,30.21,6.2,North,11.5,-,N/A,,Mostly Cloudy,350,2013-12-03 15:37:00
5:50 PM,21.2,15.8,80,30.21,6.2,North,11.5,-,N/A,,Mostly Cloudy,10,2013-12-03 15:50:00
6:50 PM,19.4,14.0,80,30.21,6.2,NNE,10.4,-,N/A,,Mostly Cloudy,30,2013-12-03 16:50:00
7:50 PM,17.6,12.2,79,30.21,6.2,North,8.1,-,N/A,,Mostly Cloudy,360,2013-12-03 17:50:00
8:00 PM,25,14,49,,9,ENE,3.5,,,,,70,2013-12-03 18:00:00
8:50 PM,19.4,12.2,74,30.24,6.2,ENE,4.6,-,N/A,,Scattered Clouds,70,2013-12-03 18:50:00
9:50 PM,17.6,12.2,79,30.21,6.2,SE,4.6,-,N/A,,Scattered Clouds,130,2013-12-03 19:50:00
10:50 PM,17.6,12.2,79,30.21,6.2,NE,6.9,-,N/A,,Scattered Clouds,50,2013-12-03 20:50:00